Time,TemperatureF,DewpointF,PressureIn,WindDirection,WindDirectionDegrees,WindSpeedMPH,WindSpeedGustMPH,Humidity,HourlyPrecipIn,Conditions,Clouds,dailyrainin,SoftwareType,DateUTC
2013-02-14 00:00:00,41.8,39.9,30.45,SSW,203,1.0,2.0,93,0.00,,,0.04,Wunderground PWS Mod,2013-02-14 08:00:00,
2013-02-14 00:10:00,41.8,39.9,30.45,SSW,203,0.0,2.0,93,0.00,,,0.04,Wunderground PWS Mod,2013-02-14 08:10:00,
2013-02-14 00:20:00,41.6,39.7,30.45,SSW,203,1.0,3.0,93,0.00,,,0.04,Wunderground PWS Mod,2013-02-14 08:20:00,
2013-02-14 00:30:00,41.6,39.7,30.45,SSW,203,1.0,3.0,93,0.01,,,0.04,Wunderground PWS Mod,2013-02-14 08:30:00,
2013-02-14 00:40:00,41.5,39.6,30.45,South,180,1.0,4.0,93,0.01,,,0.04,Wunderground PWS Mod,2013-02-14 08:40:00,
2013-02-14 00:50:00,41.5,39.6,30.45,SSE,158,1.0,3.0,93,0.01,,,0.04,Wunderground PWS Mod,2013-02-14 08:50:00,
2013-02-14 01:00:00,41.3,39.4,30.46,SSE,158,1.0,2.0,93,0.01,,,0.04,Wunderground PWS Mod,2013-02-14 09:00:00,
2013-02-14 01:10:00,41.2,39.3,30.46,SSW,203,1.0,2.0,93,0.01,,,0.04,Wunderground PWS Mod,2013-02-14 09:10:00,
2013-02-14 01:20:00,41.2,39.3,30.46,South,180,1.0,3.0,93,0.01,,,0.04,Wunderground PWS Mod,2013-02-14 09:20:00,
2013-02-14 01:30:00,41.1,39.5,30.46,South,180,1.0,3.0,94,0.00,,,0.04,Wunderground PWS Mod,2013-02-14 09:30:00,
2013-02-14 01:40:00,41.1,39.5,30.46,South,180,1.0,2.0,94,0.00,,,0.04,Wunderground PWS Mod,2013-02-14 09:40:00,
2013-02-14 01:50:00,40.9,39.3,30.46,South,180,1.0,4.0,94,0.00,,,0.04,Wunderground PWS Mod,2013-02-14 09:50:00,
2013-02-14 02:00:00,40.9,39.3,30.46,South,180,1.0,4.0,94,0.00,,,0.04,Wunderground PWS Mod,2013-02-14 10:00:00,
2013-02-14 02:10:00,40.8,39.2,30.46,South,180,1.0,4.0,94,0.00,,,0.04,Wunderground PWS Mod,2013-02-14 10:10:00,
2013-02-14 02:20:00,40.6,39.0,30.45,SSW,203,1.0,3.0,94,0.00,,,0.04,Wunderground PWS Mod,2013-02-14 10:20:00,
2013-02-14 02:30:00,40.5,38.9,30.44,SSW,203,1.0,4.0,94,0.00,,,0.04,Wunderground PWS Mod,2013-02-14 10:30:00,
2013-02-14 02:40:00,40.3,38.7,30.44,SSW,203,1.0,3.0,94,0.00,,,0.04,Wunderground PWS Mod,2013-02-14 10:40:00,
2013-02-14 02:50:00,40.3,38.7,30.45,South,180,2.0,5.0,94,0.00,,,0.04,Wunderground PWS Mod,2013-02-14 10:50:00,
2013-02-14 03:00:00,40.3,38.7,30.45,SSE,158,1.0,5.0,94,0.00,,,0.04,Wunderground PWS Mod,2013-02-14 11:00:00,
2013-02-14 03:10:00,40.3,38.7,30.45,South,180,1.0,4.0,94,0.00,,,0.04,Wunderground PWS Mod,2013-02-14 11:10:00,
2013-02-14 03:20:00,40.2,38.6,30.45,SSE,158,1.0,4.0,94,0.00,,,0.04,Wunderground PWS Mod,2013-02-14 11:20:00,
2013-02-14 03:30:00,40.1,38.5,30.45,SSW,203,1.0,4.0,94,0.00,,,0.04,Wunderground PWS Mod,2013-02-14 11:30:00,
2013-02-14 03:40:00,39.9,38.3,30.45,SSE,158,1.0,3.0,94,0.00,,,0.04,Wunderground PWS Mod,2013-02-14 11:40:00,
2013-02-14 04:00:00,39.9,38.3,30.44,South,180,1.0,3.0,94,0.00,,,0.04,Wunderground PWS Mod,2013-02-14 12:00:00,
2013-02-14 04:10:00,39.8,38.2,30.44,SSW,203,1.0,3.0,94,0.00,,,0.04,Wunderground PWS Mod,2013-02-14 12:10:00,
2013-02-14 04:20:00,39.8,38.2,30.44,SSW,203,1.0,3.0,94,0.00,,,0.04,Wunderground PWS Mod,2013-02-14 12:20:00,
2013-02-14 04:30:00,39.8,38.2,30.44,SE,135,1.0,3.0,94,0.00,,,0.04,Wunderground PWS Mod,2013-02-14 12:30:00,
2013-02-14 04:40:00,39.8,38.2,30.44,SSW,203,1.0,2.0,94,0.00,,,0.04,Wunderground PWS Mod,2013-02-14 12:40:00,
2013-02-14 04:50:00,39.8,38.2,30.45,SSW,203,1.0,3.0,94,0.00,,,0.04,Wunderground PWS Mod,2013-02-14 12:50:00,
2013-02-14 05:10:00,39.6,38.0,30.44,South,180,0.0,2.0,94,0.00,,,0.04,Wunderground PWS Mod,2013-02-14 13:10:00,
2013-02-14 05:20:00,39.6,38.0,30.45,South,180,0.0,1.0,94,0.00,,,0.04,Wunderground PWS Mod,2013-02-14 13:20:00,
2013-02-14 05:30:00,39.6,38.0,30.46,SW,225,0.0,1.0,94,0.00,,,0.04,Wunderground PWS Mod,2013-02-14 13:30:00,
2013-02-14 05:50:00,39.8,38.2,30.47,N/A,-737280,0.0,0.0,94,0.00,,,0.04,Wunderground PWS Mod,2013-02-14 13:50:00,
2013-02-14 06:00:00,39.8,38.2,30.48,N/A,-737280,0.0,0.0,94,0.00,,,0.04,Wunderground PWS Mod,2013-02-14 14:00:00,
2013-02-14 06:10:00,39.8,38.2,30.48,SW,225,0.0,1.0,94,0.00,,,0.04,Wunderground PWS Mod,2013-02-14 14:10:00,
2013-02-14 06:30:00,39.8,38.2,30.47,SW,225,0.0,1.0,94,0.01,,,0.04,Wunderground PWS Mod,2013-02-14 14:30:00,
2013-02-14 06:40:00,39.8,38.2,30.47,SW,225,0.0,1.0,94,0.01,,,0.04,Wunderground PWS Mod,2013-02-14 14:40:00,
2013-02-14 06:50:00,39.8,38.2,30.47,N/A,-737280,0.0,0.0,94,0.01,,,0.04,Wunderground PWS Mod,2013-02-14 14:50:00,
2013-02-14 07:00:00,39.8,38.2,30.47,SW,225,0.0,1.0,94,0.01,,,0.04,Wunderground PWS Mod,2013-02-14 15:00:00,
2013-02-14 07:10:00,39.8,38.2,30.47,SW,225,0.0,2.0,94,0.02,,,0.04,Wunderground PWS Mod,2013-02-14 15:10:00,
2013-02-14 07:20:00,39.8,38.2,30.48,SSW,203,1.0,2.0,94,0.02,,,0.04,Wunderground PWS Mod,2013-02-14 15:20:00,
2013-02-14 07:30:00,39.8,38.2,30.48,SSW,203,1.0,2.0,94,0.01,,,0.04,Wunderground PWS Mod,2013-02-14 15:30:00,
2013-02-14 07:40:00,39.8,38.2,30.48,N/A,-737280,0.0,0.0,94,0.01,,,0.04,Wunderground PWS Mod,2013-02-14 15:40:00,
2013-02-14 07:50:00,39.8,38.2,30.48,N/A,-737280,0.0,0.0,94,0.01,,,0.04,Wunderground PWS Mod,2013-02-14 15:50:00,
2013-02-14 08:00:00,39.8,38.2,30.48,SSW,203,0.0,1.0,94,0.02,,,0.04,Wunderground PWS Mod,2013-02-14 16:00:00,
2013-02-14 08:10:00,39.9,38.3,30.48,SSW,203,0.0,2.0,94,0.01,,,0.04,Wunderground PWS Mod,2013-02-14 16:10:00,
2013-02-14 08:30:00,40.1,38.8,30.49,SSW,203,0.0,2.0,95,0.01,,,0.04,Wunderground PWS Mod,2013-02-14 16:30:00,
2013-02-14 08:40:00,40.2,38.9,30.49,SSW,203,0.0,2.0,95,0.01,,,0.04,Wunderground PWS Mod,2013-02-14 16:40:00,
2013-02-14 08:50:00,40.3,39.0,30.49,SSW,203,0.0,1.0,95,0.01,,,0.04,Wunderground PWS Mod,2013-02-14 16:50:00,
2013-02-14 09:00:00,40.3,39.0,30.50,SSW,203,0.0,2.0,95,0.00,,,0.04,Wunderground PWS Mod,2013-02-14 17:00:00,
2013-02-14 09:10:00,40.5,39.2,30.50,SSW,203,1.0,3.0,95,0.00,,,0.04,Wunderground PWS Mod,2013-02-14 17:10:00,
2013-02-14 09:20:00,40.5,39.2,30.50,SSW,203,0.0,1.0,95,0.00,,,0.04,Wunderground PWS Mod,2013-02-14 17:20:00,
2013-02-14 09:30:00,40.6,39.3,30.50,SSW,203,0.0,1.0,95,0.00,,,0.04,Wunderground PWS Mod,2013-02-14 17:30:00,
2013-02-14 09:40:00,40.9,39.6,30.50,SSW,203,0.0,1.0,95,0.00,,,0.04,Wunderground PWS Mod,2013-02-14 17:40:00,
2013-02-14 09:50:00,41.1,39.8,30.49,SSW,203,0.0,2.0,95,0.00,,,0.04,Wunderground PWS Mod,2013-02-14 17:50:00,
2013-02-14 10:00:00,41.3,40.0,30.49,SSW,203,1.0,3.0,95,0.00,,,0.04,Wunderground PWS Mod,2013-02-14 18:00:00,
2013-02-14 10:10:00,41.6,40.3,30.49,SW,225,1.0,4.0,95,0.00,,,0.04,Wunderground PWS Mod,2013-02-14 18:10:00,
2013-02-14 10:20:00,41.6,40.3,30.49,SSE,158,1.0,2.0,95,0.00,,,0.04,Wunderground PWS Mod,2013-02-14 18:20:00,
2013-02-14 10:30:00,41.6,40.0,30.49,SW,225,1.0,4.0,94,0.00,,,0.04,Wunderground PWS Mod,2013-02-14 18:30:00,
2013-02-14 10:40:00,41.9,40.6,30.49,SW,225,0.0,2.0,95,0.00,,,0.04,Wunderground PWS Mod,2013-02-14 18:40:00,
2013-02-14 10:50:00,41.9,40.3,30.50,SSE,158,2.0,5.0,94,0.00,,,0.04,Wunderground PWS Mod,2013-02-14 18:50:00,
2013-02-14 11:00:00,42.1,40.5,30.49,SW,225,1.0,3.0,94,0.00,,,0.04,Wunderground PWS Mod,2013-02-14 19:00:00,
2013-02-14 11:10:00,42.5,40.9,30.49,South,180,1.0,3.0,94,0.00,,,0.04,Wunderground PWS Mod,2013-02-14 19:10:00,
2013-02-14 11:20:00,42.8,41.2,30.50,SSE,158,1.0,4.0,94,0.00,,,0.04,Wunderground PWS Mod,2013-02-14 19:20:00,
2013-02-14 11:30:00,42.9,41.0,30.49,SSW,203,2.0,5.0,93,0.00,,,0.04,Wunderground PWS Mod,2013-02-14 19:30:00,
2013-02-14 11:40:00,43.3,41.1,30.49,SSW,203,1.0,4.0,92,0.00,,,0.04,Wunderground PWS Mod,2013-02-14 19:40:00,
2013-02-14 11:50:00,43.8,41.6,30.50,SSW,203,1.0,3.0,92,0.00,,,0.04,Wunderground PWS Mod,2013-02-14 19:50:00,
2013-02-14 12:00:00,43.9,41.2,30.49,SSW,203,2.0,4.0,90,0.00,,,0.04,Wunderground PWS Mod,2013-02-14 20:00:00,
2013-02-14 12:10:00,44.1,41.1,30.49,SSW,203,1.0,4.0,89,0.00,,,0.04,Wunderground PWS Mod,2013-02-14 20:10:00,
2013-02-14 12:20:00,44.1,40.8,30.49,WSW,248,1.0,3.0,88,0.00,,,0.04,Wunderground PWS Mod,2013-02-14 20:20:00,
2013-02-14 12:30:00,44.2,40.6,30.50,SW,225,1.0,2.0,87,0.00,,,0.04,Wunderground PWS Mod,2013-02-14 20:30:00,
2013-02-14 12:40:00,44.3,40.7,30.50,SW,225,1.0,5.0,87,0.00,,,0.04,Wunderground PWS Mod,2013-02-14 20:40:00,
2013-02-14 13:00:00,44.5,40.9,30.50,South,180,0.0,2.0,87,0.00,,,0.04,Wunderground PWS Mod,2013-02-14 21:00:00,
2013-02-14 13:10:00,44.5,40.9,30.50,South,180,0.0,3.0,87,0.00,,,0.04,Wunderground PWS Mod,2013-02-14 21:10:00,
2013-02-14 13:20:00,44.5,40.9,30.50,SSW,203,0.0,3.0,87,0.00,,,0.04,Wunderground PWS Mod,2013-02-14 21:20:00,
2013-02-14 13:30:00,44.5,40.9,30.50,South,180,0.0,2.0,87,0.00,,,0.04,Wunderground PWS Mod,2013-02-14 21:30:00,
2013-02-14 13:40:00,44.6,41.3,30.50,South,180,0.0,2.0,88,0.00,,,0.04,Wunderground PWS Mod,2013-02-14 21:40:00,
2013-02-14 13:50:00,44.6,41.3,30.50,South,180,0.0,1.0,88,0.00,,,0.04,Wunderground PWS Mod,2013-02-14 21:50:00,
2013-02-14 14:00:00,44.9,41.6,30.50,South,180,1.0,3.0,88,0.00,,,0.04,Wunderground PWS Mod,2013-02-14 22:00:00,
2013-02-14 14:10:00,45.2,41.9,30.50,SSE,158,1.0,2.0,88,0.00,,,0.04,Wunderground PWS Mod,2013-02-14 22:10:00,
2013-02-14 14:30:00,45.5,42.2,30.50,SSE,158,0.0,2.0,88,0.00,,,0.04,Wunderground PWS Mod,2013-02-14 22:30:00,
2013-02-14 14:40:00,45.7,42.1,30.50,SSE,158,0.0,2.0,87,0.00,,,0.04,Wunderground PWS Mod,2013-02-14 22:40:00,
2013-02-14 14:50:00,46.0,42.3,30.49,SSE,158,1.0,3.0,87,0.00,,,0.04,Wunderground PWS Mod,2013-02-14 22:50:00,
2013-02-14 15:00:00,46.0,42.3,30.49,South,180,1.0,3.0,87,0.00,,,0.04,Wunderground PWS Mod,2013-02-14 23:00:00,
2013-02-14 15:10:00,45.8,42.2,30.49,South,180,0.0,2.0,87,0.00,,,0.04,Wunderground PWS Mod,2013-02-14 23:10:00,
2013-02-14 15:20:00,46.0,42.3,30.49,South,180,1.0,3.0,87,0.00,,,0.04,Wunderground PWS Mod,2013-02-14 23:20:00,
2013-02-14 15:30:00,45.8,42.2,30.49,SSW,203,0.0,1.0,87,0.00,,,0.04,Wunderground PWS Mod,2013-02-14 23:30:00,
2013-02-14 15:40:00,45.8,42.2,30.49,SSW,203,0.0,1.0,87,0.00,,,0.04,Wunderground PWS Mod,2013-02-14 23:40:00,
2013-02-14 15:50:00,45.8,42.2,30.49,N/A,-737280,0.0,0.0,87,0.00,,,0.04,Wunderground PWS Mod,2013-02-14 23:50:00,
2013-02-14 16:00:00,45.8,42.4,30.50,SSW,203,0.0,1.0,88,0.00,,,0.04,Wunderground PWS Mod,2013-02-15 00:00:00,
2013-02-14 16:10:00,45.8,42.4,30.50,N/A,-737280,0.0,0.0,88,0.00,,,0.04,Wunderground PWS Mod,2013-02-15 00:10:00,
2013-02-14 16:20:00,45.8,42.4,30.50,N/A,-737280,0.0,0.0,88,0.00,,,0.04,Wunderground PWS Mod,2013-02-15 00:20:00,
2013-02-14 16:40:00,45.8,42.4,30.49,N/A,-737280,0.0,0.0,88,0.00,,,0.04,Wunderground PWS Mod,2013-02-15 00:40:00,
2013-02-14 16:50:00,45.7,42.3,30.49,N/A,-737280,0.0,0.0,88,0.00,,,0.04,Wunderground PWS Mod,2013-02-15 00:50:00,
2013-02-14 17:00:00,45.7,42.6,30.49,SSW,203,0.0,1.0,89,0.00,,,0.04,Wunderground PWS Mod,2013-02-15 01:00:00,
2013-02-14 17:10:00,45.5,42.4,30.49,N/A,-737280,0.0,0.0,89,0.00,,,0.04,Wunderground PWS Mod,2013-02-15 01:10:00,
2013-02-14 17:20:00,45.4,42.3,30.49,N/A,-737280,0.0,0.0,89,0.00,,,0.04,Wunderground PWS Mod,2013-02-15 01:20:00,
2013-02-14 17:30:00,45.2,42.2,30.49,N/A,-737280,0.0,0.0,89,0.00,,,0.04,Wunderground PWS Mod,2013-02-15 01:30:00,
2013-02-14 17:50:00,45.1,42.1,30.49,N/A,-737280,0.0,0.0,89,0.00,,,0.04,Wunderground PWS Mod,2013-02-15 01:50:00,
2013-02-14 18:00:00,44.9,41.9,30.49,N/A,-737280,0.0,0.0,89,0.00,,,0.04,Wunderground PWS Mod,2013-02-15 02:00:00,
2013-02-14 18:10:00,44.9,42.1,30.49,N/A,-737280,0.0,0.0,90,0.00,,,0.04,Wunderground PWS Mod,2013-02-15 02:10:00,
2013-02-14 18:20:00,44.9,42.1,30.50,N/A,-737280,0.0,0.0,90,0.00,,,0.04,Wunderground PWS Mod,2013-02-15 02:20:00,
2013-02-14 18:30:00,44.8,42.0,30.50,N/A,-737280,0.0,0.0,90,0.00,,,0.04,Wunderground PWS Mod,2013-02-15 02:30:00,
2013-02-14 18:40:00,44.6,42.1,30.50,N/A,-737280,0.0,0.0,91,0.00,,,0.04,Wunderground PWS Mod,2013-02-15 02:40:00,
2013-02-14 18:50:00,44.5,42.0,30.50,N/A,-737280,0.0,0.0,91,0.00,,,0.04,Wunderground PWS Mod,2013-02-15 02:50:00,
2013-02-14 19:00:00,44.5,42.0,30.50,N/A,-737280,0.0,0.0,91,0.00,,,0.04,Wunderground PWS Mod,2013-02-15 03:00:00,
2013-02-14 19:10:00,44.3,41.8,30.50,N/A,-737280,0.0,0.0,91,0.00,,,0.04,Wunderground PWS Mod,2013-02-15 03:10:00,
2013-02-14 19:20:00,44.2,41.7,30.50,N/A,-737280,0.0,0.0,91,0.00,,,0.04,Wunderground PWS Mod,2013-02-15 03:20:00,
2013-02-14 19:30:00,44.2,42.0,30.50,N/A,-737280,0.0,0.0,92,0.00,,,0.04,Wunderground PWS Mod,2013-02-15 03:30:00,
2013-02-14 19:40:00,44.1,41.9,30.50,N/A,-737280,0.0,0.0,92,0.00,,,0.04,Wunderground PWS Mod,2013-02-15 03:40:00,
2013-02-14 19:50:00,44.1,41.9,30.51,N/A,-737280,0.0,0.0,92,0.00,,,0.04,Wunderground PWS Mod,2013-02-15 03:50:00,
2013-02-14 20:00:00,44.1,41.9,30.51,SSW,203,0.0,1.0,92,0.00,,,0.04,Wunderground PWS Mod,2013-02-15 04:00:00,
2013-02-14 20:10:00,44.1,41.9,30.51,N/A,-737280,0.0,0.0,92,0.00,,,0.04,Wunderground PWS Mod,2013-02-15 04:10:00,
2013-02-14 20:20:00,44.1,41.9,30.50,N/A,-737280,0.0,0.0,92,0.00,,,0.04,Wunderground PWS Mod,2013-02-15 04:20:00,
2013-02-14 20:30:00,44.1,41.9,30.50,N/A,-737280,0.0,0.0,92,0.00,,,0.04,Wunderground PWS Mod,2013-02-15 04:30:00,
2013-02-14 20:40:00,44.1,41.9,30.50,N/A,-737280,0.0,0.0,92,0.00,,,0.04,Wunderground PWS Mod,2013-02-15 04:40:00,
2013-02-14 20:50:00,44.1,42.2,30.50,SSW,203,0.0,2.0,93,0.00,,,0.04,Wunderground PWS Mod,2013-02-15 04:50:00,
2013-02-14 21:00:00,43.9,42.0,30.51,SSW,203,0.0,1.0,93,0.00,,,0.04,Wunderground PWS Mod,2013-02-15 05:00:00,
2013-02-14 21:10:00,43.9,42.0,30.51,N/A,-737280,0.0,0.0,93,0.00,,,0.04,Wunderground PWS Mod,2013-02-15 05:10:00,
2013-02-14 21:20:00,43.9,42.0,30.51,N/A,-737280,0.0,0.0,93,0.00,,,0.04,Wunderground PWS Mod,2013-02-15 05:20:00,
2013-02-14 21:30:00,43.8,41.9,30.50,N/A,-737280,0.0,0.0,93,0.00,,,0.04,Wunderground PWS Mod,2013-02-15 05:30:00,
2013-02-14 21:40:00,43.8,41.9,30.50,N/A,-737280,0.0,0.0,93,0.00,,,0.04,Wunderground PWS Mod,2013-02-15 05:40:00,
2013-02-14 21:50:00,43.6,41.7,30.50,N/A,-737280,0.0,0.0,93,0.00,,,0.04,Wunderground PWS Mod,2013-02-15 05:50:00,
2013-02-14 22:00:00,43.6,41.7,30.49,N/A,-737280,0.0,0.0,93,0.00,,,0.04,Wunderground PWS Mod,2013-02-15 06:00:00,
2013-02-14 22:10:00,43.5,41.6,30.49,N/A,-737280,0.0,0.0,93,0.00,,,0.04,Wunderground PWS Mod,2013-02-15 06:10:00,
2013-02-14 22:20:00,43.5,41.6,30.49,N/A,-737280,0.0,0.0,93,0.00,,,0.04,Wunderground PWS Mod,2013-02-15 06:20:00,
2013-02-14 22:30:00,43.3,41.4,30.50,N/A,-737280,0.0,0.0,93,0.00,,,0.04,Wunderground PWS Mod,2013-02-15 06:30:00,
2013-02-14 22:40:00,43.1,41.2,30.50,N/A,-737280,0.0,0.0,93,0.00,,,0.04,Wunderground PWS Mod,2013-02-15 06:40:00,
2013-02-14 22:50:00,42.6,40.7,30.50,N/A,-737280,0.0,0.0,93,0.00,,,0.04,Wunderground PWS Mod,2013-02-15 06:50:00,
2013-02-14 23:00:00,42.3,40.4,30.49,N/A,-737280,0.0,0.0,93,0.00,,,0.04,Wunderground PWS Mod,2013-02-15 07:00:00,
2013-02-14 23:10:00,41.9,40.0,30.49,N/A,-737280,0.0,0.0,93,0.00,,,0.04,Wunderground PWS Mod,2013-02-15 07:10:00,
2013-02-14 23:20:00,41.6,39.7,30.49,N/A,-737280,0.0,0.0,93,0.00,,,0.04,Wunderground PWS Mod,2013-02-15 07:20:00,
2013-02-14 23:30:00,41.5,39.6,30.49,N/A,-737280,0.0,0.0,93,0.00,,,0.04,Wunderground PWS Mod,2013-02-15 07:30:00,
2013-02-14 23:40:00,41.3,39.4,30.49,N/A,-737280,0.0,0.0,93,0.00,,,0.04,Wunderground PWS Mod,2013-02-15 07:40:00,